This is the latest recevied weather packets stored in our database for station/object IZ5TJI-3. If no packets are shown the sender has not sent any weather packets the latest 10 day(s).
| Time | Temp. | Humidity | Pressure | Rain* | Wind** | Luminosity | Snow |
|---|---|---|---|---|---|---|---|
| 1777341632 | 8.89° C | 86% | 1015.5 hPa | 0 mm | - | - | - |
| 1777340732 | 8.89° C | 86% | 1015.4 hPa | 0 mm | - | - | - |
| 1777339832 | 8.89° C | 85% | 1015.5 hPa | 0 mm | - | - | - |
| 1777338932 | 8.89° C | 84% | 1015.5 hPa | 0 mm | - | - | - |
| 1777338032 | 8.89° C | 83% | 1015.6 hPa | 0 mm | - | - | - |
| 1777337132 | 8.89° C | 83% | 1015.6 hPa | 0 mm | - | - | - |
| 1777336232 | 8.89° C | 81% | 1015.7 hPa | 0 mm | - | - | - |
| 1777335332 | 9.44° C | 81% | 1015.8 hPa | 0 mm | - | - | - |
| 1777334432 | 9.44° C | 81% | 1015.9 hPa | 0 mm | - | - | - |
| 1777333532 | 9.44° C | 80% | 1015.9 hPa | 0 mm | - | - | - |
| 1777332632 | 9.44° C | 79% | 1015.9 hPa | 0 mm | - | - | - |
| 1777331732 | 9.44° C | 78% | 1016 hPa | 0 mm | - | - | - |
| 1777330832 | 10° C | 78% | 1016 hPa | 0 mm | - | - | - |
| 1777329932 | 10° C | 78% | 1015.9 hPa | 0 mm | - | - | - |
| 1777329032 | 10.56° C | 77% | 1015.9 hPa | 0 mm | - | - | - |
| 1777328132 | 10.56° C | 77% | 1015.9 hPa | 0 mm | - | - | - |
| 1777327232 | 11.11° C | 78% | 1015.9 hPa | 0 mm | - | - | - |
| 1777326332 | 11.67° C | 77% | 1016 hPa | 0 mm | - | - | - |
| 1777325432 | 12.78° C | 79% | 1016 hPa | 0 mm | - | - | - |
| 1777324532 | 12.78° C | 75% | 1015.9 hPa | 0 mm | - | - | - |
| 1777323632 | 13.33° C | 73% | 1016 hPa | 0 mm | - | - | - |
| 1777322733 | 13.89° C | 73% | 1016 hPa | 0 mm | - | - | - |
| 1777321833 | 14.44° C | 72% | 1016.1 hPa | 0 mm | - | - | - |
| 1777320933 | 15° C | 71% | 1015.9 hPa | 0 mm | - | - | - |
| 1777320033 | 15° C | 69% | 1016.1 hPa | 0 mm | - | - | - |
* Rain latest hour (hover to see other rain measurements)
** Current wind speed in m/s (hover to see current wind gust speed)